Content
SEND FEEDBACK

Daily
Averages
Monthly
Summary
Australia

MACHANS BEACH, QUEENSLAND


Home > Oceania > Australia > Queensland
Elevation: 9 feet     Latitude: 16 53S     Longitude: 145 45E

WEATHER
 
SELECT A DAY
Number of Records: 305,605;   Date Range: 7/1/96 - 11/22/14
 
SHARE

PRINT THIS DATA

[ ← Previous Day ]
WEATHER ALMANAC - JANUARY 31, 2013
[ Next Day → ]
[ °C ]   °F
Weather ElementAverageHighLow
Temperature83.3 °F89.6 °F (10:30 am)77 °F (3:00 am)
Dewpoint77 °F79 °F (12:00 pm)73.4 °F (2:30 am)
Humidity80.5 %94 % (2:00 am)64 % (10:00 am)
Barometer29.77 in29.81 in (7:00 am)29.71 in (2:30 pm)
Wind Speed6.1 mph12.7 mph (11:00 am)
Weather ElementAverage
Visibility7.8 mi
Wind DirectionESE (108.6 °)

Weather ElementTotal
Precipitation---
Cooling Degree Days18.3 (Base 65)
Growing Degree Days33.3 (Base 50)
Averaged from 63 records on January 31, 2013
WEATHER CONDITIONS BREAKOUT
WIND DIRECTION BREAKOUT
WEATHER BY HOUR - JANUARY 31, 2013
[ °C ]   °F
Local TimeTemperatureDewpointHumidityBarometerVisibilityWind DirectionWind SpeedGust SpeedPrecipitationEventsConditions
12:00 AM78.8 °F75.2 °F89 %29.77 inWNW (290°)4.6 mphClear
12:30 AM78.8 °F75.2 °F89 %29.77 inWNW (290°)4.6 mphClear
1:00 AM79.0 °F75.0 °F84 %29.78 inWest (280°)4.6 mph
1:00 AM78.8 °F75.2 °F89 %29.77 inWest (280°)4.6 mphClear
1:30 AM78.8 °F75.2 °F89 %29.74 inWest (280°)6.9 mphClear
2:00 AM78.8 °F77.0 °F94 %29.74 inWSW (240°)1.2 mphClear
2:30 AM78.8 °F73.4 °F83 %29.74 inWest (270°)3.5 mphClear
3:00 AM77.0 °F75.2 °F94 %29.74 inWest (270°)1.2 mphClear
3:00 AM78.0 °F74.0 °F85 %29.75 inWest (270°)1.2 mph
3:30 AM77.0 °F75.2 °F94 %29.74 inCalmClear
4:00 AM78.0 °F74.0 °F83 %29.77 inWest (280°)6.9 mph
4:00 AM77.0 °F73.4 °F89 %29.74 inWest (280°)6.9 mphClear
4:30 AM77.0 °F75.2 °F94 %29.77 in6.2 miWest (270°)4.6 mphPartly Cloudy
5:00 AM77.0 °F73.4 °F89 %29.77 in6.2 miWest (270°)4.6 mphPartly Cloudy
5:30 AM77.0 °F73.4 °F89 %29.77 in6.2 miWest (280°)5.8 mphPartly Cloudy
6:00 AM77.0 °F73.4 °F89 %29.77 in6.2 miWest (270°)6.9 mphScattered Clouds
6:00 AM77.0 °F74.0 °F87 %29.78 in16.0 miWest (280°)6.9 mphPartly Cloudy
6:30 AM77.0 °F73.4 °F89 %29.77 in6.2 miWest (270°)5.8 mphPartly Cloudy
7:00 AM79.0 °F75.0 °F84 %29.81 inWest (270°)5.8 mph
7:00 AM78.8 °F75.2 °F89 %29.80 in6.2 miWest (270°)5.8 mphPartly Cloudy
7:30 AM82.4 °F77.0 °F84 %29.80 in6.2 miCalmPartly Cloudy
8:00 AM84.2 °F77.0 °F79 %29.80 in6.2 miCalmPartly Cloudy
8:30 AM86.0 °F77.0 °F74 %29.80 in6.2 miSSE (150°)4.6 mphPartly Cloudy
9:00 AM87.8 °F77.0 °F70 %29.80 in6.2 miEast (80°)3.5 mphPartly Cloudy
9:00 AM87.0 °F77.0 °F65 %29.81 in19.0 miEast (80°)3.5 mphPartly Cloudy
9:30 AM87.8 °F78.8 °F75 %29.80 in6.2 miENE (60°)5.8 mphPartly Cloudy
10:00 AM88.0 °F77.0 °F64 %29.81 inENE (70°)6.9 mph
10:00 AM87.8 °F77.0 °F70 %29.80 in6.2 miENE (70°)6.9 mphPartly Cloudy
10:30 AM89.6 °F77.0 °F66 %29.80 in6.2 miENE (70°)10.4 mphPartly Cloudy
11:00 AM87.8 °F78.8 °F75 %29.80 in6.2 miENE (60°)12.7 mphPartly Cloudy
11:30 AM87.8 °F78.8 °F75 %29.77 in6.2 miNE (50°)11.5 mphPartly Cloudy
12:00 PM87.8 °F78.8 °F75 %29.77 in6.2 miNE (50°)11.5 mphPartly Cloudy
12:00 PM87.0 °F79.0 °F72 %29.78 in19.0 miNE (50°)11.5 mphPartly Cloudy
12:30 PM87.8 °F78.8 °F75 %29.77 in6.2 miNE (40°)11.5 mphPartly Cloudy
1:00 PM89.0 °F79.0 °F66 %29.77 inNNE (30°)11.5 mph
1:00 PM89.6 °F78.8 °F70 %29.77 in6.2 miNNE (30°)11.5 mphScattered Clouds
1:30 PM89.6 °F78.8 °F70 %29.74 in6.2 miNNE (30°)10.4 mphMostly Cloudy
2:00 PM87.8 °F78.8 °F75 %29.74 in6.2 miNNE (20°)10.4 mphMostly Cloudy
2:30 PM87.8 °F78.8 °F75 %29.71 in6.2 miNNE (30°)10.4 mphMostly Cloudy
3:00 PM87.8 °F78.8 °F75 %29.71 in6.2 miNNE (30°)9.2 mphMostly Cloudy
3:00 PM88.0 °F79.0 °F68 %29.73 in19.0 miNNE (30°)9.2 mphPartly Cloudy
3:30 PM87.8 °F78.8 °F75 %29.71 in6.2 miNNE (20°)10.4 mphMostly Cloudy
4:00 PM87.0 °F78.0 °F69 %29.73 inNNE (20°)9.2 mph
4:00 PM87.8 °F78.8 °F75 %29.71 in6.2 miNNE (20°)9.2 mphMostly Cloudy
4:30 PM86.0 °F77.0 °F74 %29.71 in6.2 miNNE (30°)8.1 mphMostly Cloudy
5:00 PM86.0 °F78.8 °F79 %29.71 in6.2 miNorth (10°)8.1 mphMostly Cloudy
5:30 PM86.0 °F77.0 °F74 %29.74 in6.2 miNorth (10°)8.1 mphScattered Clouds
6:00 PM84.2 °F77.0 °F79 %29.74 in6.2 miNNE (20°)6.9 mphMostly Cloudy
6:00 PM85.0 °F77.0 °F71 %29.74 in19.0 miNNE (20°)6.9 mphPartly Cloudy
6:30 PM84.2 °F78.8 °F84 %29.74 in6.2 miNorth (10°)4.6 mphMostly Cloudy
7:00 PM84.0 °F78.0 °F76 %29.76 inNNE (30°)4.6 mph
7:00 PM84.2 °F77.0 °F79 %29.74 in6.2 miNNE (30°)4.6 mphMostly Cloudy
7:30 PM84.2 °F78.8 °F84 %29.77 in6.2 miNE (40°)4.6 mphMostly Cloudy
8:00 PM84.2 °F78.8 °F84 %29.77 in6.2 miNE (50°)4.6 mphScattered Clouds
8:30 PM82.4 °F77.0 °F84 %29.77 in6.2 miNNE (30°)3.5 mphScattered Clouds
9:00 PM84.2 °F78.8 °F84 %29.77 in6.2 miNorth (10°)5.8 mphScattered Clouds
9:00 PM84.0 °F78.0 °F78 %29.79 in19.0 miNorth (10°)5.8 mphPartly Cloudy
9:30 PM82.4 °F77.0 °F84 %29.80 in6.2 miNorth (10°)4.6 mphMostly Cloudy
10:00 PM83.0 °F78.0 °F80 %29.81 inNNE (30°)2.3 mph
10:00 PM82.4 °F78.8 °F89 %29.80 in6.2 miNNE (30°)2.3 mphScattered Clouds
10:30 PM82.4 °F78.8 °F89 %29.80 in6.2 miCalmPartly Cloudy
11:00 PM80.6 °F78.8 °F94 %29.80 in6.2 miCalmPartly Cloudy
11:30 PM80.6 °F78.8 °F94 %29.80 in6.2 miSouth (170°)3.5 mphPartly Cloudy
Hourly data recorded from YBCS, located miles away from Machans Beach, Queensland







STORIES FROM OUR PARTNERS